TimeEDT,TemperatureF,Dew PointF,Humidity,Sea Level PressureIn,VisibilityMPH,Wind Direction,Wind SpeedMPH,Gust SpeedMPH,PrecipitationIn,Events,Conditions,WindDirDegrees,DateUTC
12:53 AM,75.0,64.0,69,30.00,10.0,SSW,9.2,-,N/A,,Clear,200,2013-06-25 04:53:00
1:53 AM,73.9,64.0,71,29.98,10.0,SSW,6.9,-,N/A,,Clear,200,2013-06-25 05:53:00
2:53 AM,73.0,64.0,73,29.94,9.0,South,6.9,-,N/A,,Clear,190,2013-06-25 06:53:00
3:53 AM,73.0,64.0,73,29.94,8.0,SW,5.8,-,N/A,,Partly Cloudy,220,2013-06-25 07:53:00
4:53 AM,72.0,64.0,76,29.94,8.0,SW,8.1,-,N/A,,Clear,220,2013-06-25 08:53:00
5:53 AM,71.1,64.0,78,29.96,7.0,WSW,6.9,-,N/A,,Partly Cloudy,240,2013-06-25 09:53:00
6:53 AM,72.0,64.0,76,29.96,9.0,SW,6.9,-,N/A,,Mostly Cloudy,220,2013-06-25 10:53:00
7:53 AM,73.0,64.0,73,29.98,10.0,WSW,5.8,-,N/A,,Overcast,250,2013-06-25 11:53:00
8:30 AM,73.4,62.6,69,30.00,10.0,WSW,6.9,-,N/A,,Overcast,240,2013-06-25 12:30:00
8:53 AM,73.9,64.0,71,29.99,10.0,West,13.8,18.4,N/A,,Overcast,260,2013-06-25 12:53:00
9:18 AM,75.2,64.4,69,30.01,10.0,West,16.1,-,N/A,,Mostly Cloudy,260,2013-06-25 13:18:00
9:53 AM,75.0,64.9,71,30.00,10.0,West,15.0,25.3,N/A,,Mostly Cloudy,270,2013-06-25 13:53:00
10:53 AM,77.0,66.0,69,29.98,7.0,West,16.1,20.7,0.00,,Mostly Cloudy,280,2013-06-25 14:53:00
11:08 AM,78.8,66.2,65,30.00,8.0,West,12.7,18.4,N/A,,Partly Cloudy,280,2013-06-25 15:08:00
11:53 AM,81.0,64.9,58,29.96,10.0,WSW,11.5,-,N/A,,Clear,250,2013-06-25 15:53:00
12:53 PM,82.0,62.1,51,29.94,10.0,West,10.4,-,N/A,,Clear,270,2013-06-25 16:53:00
1:53 PM,84.9,64.0,49,29.93,10.0,West,8.1,-,N/A,,Clear,270,2013-06-25 17:53:00
2:53 PM,88.0,63.0,43,29.92,10.0,West,11.5,-,N/A,,Clear,280,2013-06-25 18:53:00
3:53 PM,87.1,64.0,46,29.90,10.0,NW,8.1,-,N/A,,Scattered Clouds,320,2013-06-25 19:53:00
4:53 PM,68.0,61.0,78,29.91,10.0,Variable,4.6,16.1,N/A,Rain,Light Rain,0,2013-06-25 20:53:00
5:53 PM,66.9,63.0,87,29.87,10.0,ESE,4.6,-,0.00,,Clear,110,2013-06-25 21:53:00
6:53 PM,68.0,64.0,87,29.88,10.0,South,3.5,-,0.01,Rain,Light Rain,170,2013-06-25 22:53:00
7:53 PM,68.0,64.0,87,29.89,10.0,SSW,5.8,-,0.00,,Partly Cloudy,200,2013-06-25 23:53:00
9:53 PM,-9999,-9999,N/A,29.93,-9999.0,North,-9999.0,-,N/A,,Unknown,0,2013-06-26 01:53:00
10:53 PM,-9999,-9999,N/A,29.91,-9999.0,North,-9999.0,-,N/A,,Unknown,0,2013-06-26 02:53:00
11:53 PM,-9999,-9999,N/A,29.92,-9999.0,North,-9999.0,-,N/A,,Unknown,0,2013-06-26 03:53:00